Regional Weather Roundup
Issued by NWS

Home | Current Version | Previous Version | Text Only | Print | Product List | Glossary On
Versions: 1 2 3 4 5 6 7 8 9 10 11 12 13 14 15 16 17 18 19 20 21 22 23 24 25 26 27 28 29 30 31 32 33 34 35 36 37 38 39 40 41 42 43 44 45 46 47 48 49 50
000
ASUS45 KREV 242210
RWRNV
NEVADA REGIONAL WEATHER ROUNDUP
NATIONAL WEATHER SERVICE RENO NV
300 PM PDT FRI MAR 24 2017

NOTE: "FAIR" INDICATES FEW OR NO CLOUDS BELOW 12,000 FEET WITH NO
SIGNIFICANT WEATHER AND/OR OBSTRUCTIONS TO VISIBILITY.

NVZ001-003-004-242300-
WESTERN NEVADA

CITY           SKY/WX    TMP DP  RH WIND       PRES   REMARKS
RENO           LGT RAIN  48  36  63 S17G31    30.03F
CARSON CITY    FAIR      45  37  76 SW12G18   30.11R HAZE
MINDEN         LGT RAIN  41  37  87 S16G24    30.11R
FALLON         CLOUDY    59  32  36 W18       30.02S
LOVELOCK       LGT RAIN  56  36  47 W8        30.01S
HAWTHORNE      PTSUNNY   72  30  21 SW22G30   29.97R
$$

NVZ002-CAZ072-073-242300-
NORTHERN AND CENTRAL SIERRA

CITY           SKY/WX    TMP DP  RH WIND       PRES   REMARKS
S. LAKE TAHOE  LGT SNOW  34  32  92 S10       30.12S VSB 1
TRUCKEE        LGT RAIN  36  32  87 S13G24    30.12S
SQUAW VLY 8000   N/A     28  28 100 S12         N/A
SUSANVILLE     SUNNY     46  32  57 SW14G22   30.06R
MAMMOTH LAKES  CLOUDY    51  32  48 N5        30.14S
BRIDGEPORT     LGT SNOW  35  30  82 VRB3      30.11F
$$

NVZ030-031-036-242300-
NORTHERN NEVADA

CITY           SKY/WX    TMP DP  RH WIND       PRES   REMARKS
ELKO           CLOUDY    59  31  34 S15G23    29.99F
WINNEMUCCA     CLOUDY    55  36  48 SW14G23   30.01F
WENDOVER       PTSUNNY   60  28  29 SE16      30.07F
$$

NVZ035-037-242300-
CENTRAL NEVADA

CITY           SKY/WX    TMP DP  RH WIND       PRES   REMARKS
ELY            CLOUDY    56  27  32 SE18G28   30.11F
EUREKA           N/A     55  25  31 S23G31    30.05
$$

NVZ013-014-242300-
SOUTH CENTRAL NEVADA

CITY           SKY/WX    TMP DP  RH WIND       PRES   REMARKS
TONOPAH        CLOUDY    59  19  21 S21G28    30.09F
$$

NVZ017-020-022-242300-
SOUTHERN NEVADA

CITY           SKY/WX    TMP DP  RH WIND       PRES   REMARKS
LAS VEGAS      PTSUNNY   75  29  18 NE13      30.07F
N. LAS VEGAS   SUNNY     73  29  19 E10       30.09F
NELLIS AFB     SUNNY     73  33  23 E9        30.09F
HENDERSON      SUNNY     76  31  19 S12       30.11F
MERCURY        MOSUNNY   74  22  14 S22G28    30.07F
$$



USA.gov is the U.S. government's official web portal to all federal, state and local government web resources and services.